Location: Newark
(46.7636°N, 1.8358°W)
Time: 19:35:30
(UTC+00:00)

Transit 2A Rocket - Visible Passes

Search period start: 16 October 2019 00:00
Search period end: 26 October 2019 00:00
Orbit: 593 x 910 km, 66.7° (Epoch: 15 October)

Date Brightness Start Highest point End Pass type
(mag) Time Alt. Az. Time Alt. Az. Time Alt. Az.
16 Oct 7.9 04:38:36 10° SE 04:41:13 14° ESE 04:43:44 10° ENE visible
17 Oct 5.6 05:35:41 10° SSW 05:40:44 57° ESE 05:45:22 10° NE visible
18 Oct 6.5 04:53:43 10° S 04:58:19 33° ESE 05:02:35 10° NE visible
19 Oct 7.3 04:12:19 10° SSE 04:15:59 20° ESE 04:19:27 10° ENE visible
19 Oct 4.8 05:53:10 10° SW 05:58:11 62° NW 06:02:49 10° NNE visible
20 Oct 7.8 03:32:13 10° ESE 03:33:45 11° ESE 03:35:14 10° E visible
20 Oct 4.9 05:10:33 10° SSW 05:15:39 80° ESE 05:20:19 10° NE visible
21 Oct 5.7 04:28:20 10° S 04:33:11 47° ESE 04:37:42 10° NE visible
22 Oct 6.6 03:48:24 19° SSE 03:50:48 28° ESE 03:54:49 10° NE visible
22 Oct 5.1 05:28:24 10° WSW 05:33:11 45° NW 05:37:38 10° NNE visible
23 Oct 7.2 03:08:09 16° ESE 03:08:30 16° ESE 03:11:28 10° ENE visible
23 Oct 4.6 04:48:07 29° SW 04:50:36 74° NW 04:55:14 10° NNE visible
24 Oct 5.0 04:07:37 63° SSE 04:08:05 67° ESE 04:12:42 10° NE visible
24 Oct 6.0 05:47:35 12° W 05:51:00 22° NW 05:54:36 10° N visible
25 Oct 6.4 03:26:57 32° E 03:26:57 32° E 03:30:00 10° NE visible
25 Oct 5.5 05:06:54 28° WNW 05:08:14 33° NW 05:12:23 10° NNE visible
